FW5988 Weather Reports


time (UTC)temp
C
wind
direction
speed
KPH
gust
KPH
rain 1hr
cm
rain 24hr
cm
rain mn
cm
humidity
%
barometer
mb
20260510081534 16 280 9.7 22.5 0.00 0.00 0.00 58 1011.7
20260510074527 17 269 16.1 20.9 0.00 0.00 0.00 54 1011.5
20260510073050 17 273 6.4 14.5 0.00 0.00 0.00 54 1011.5
20260510071506 17 192 4.8 9.7 0.00 0.00 0.00 54 1011.6
20260510070043 17 227 4.8 22.5 0.00 0.00 0.00 55 1011.5
20260510064554 17 254 14.5 25.7 0.00 0.00 0.00 56 1011.4
20260510063017 17 259 16.1 29.0 0.00 0.00 0.00 56 1011.3
20260510061543 17 263 14.5 25.7 0.00 0.00 0.00 56 1011.4
20260510060009 17 272 11.3 24.1 0.00 0.00 0.00 55 1011.4
20260510054534 17 280 14.5 27.4 0.00 0.00 0.00 54 1011.4
20260510053106 17 285 17.7 27.4 0.00 0.00 0.00 54 1011.1
20260510051530 18 235 16.1 25.7 0.00 0.00 0.00 53 1011.3
20260510050048 17 198 11.3 25.7 0.00 0.00 0.00 54 1011.3
20260510044603 17 263 16.1 22.5 0.00 0.00 0.00 55 1011.5
20260510043041 17 238 11.3 24.1 0.00 0.00 0.00 55 1011.4
20260510041545 18 315 11.3 24.1 0.00 0.00 0.00 56 1011.4
20260510040012 18 265 12.9 25.7 0.00 0.00 0.00 57 1011.2
20260510034521 18 276 12.9 24.1 0.00 0.00 0.00 57 1011.2
20260510033058 19 246 11.3 24.1 0.00 0.00 0.00 57 1011.4
20260510031521 18 246 8.0 16.1 0.00 0.00 0.00 65 1011.3
20260510030021 18 205 9.7 16.1 0.00 0.00 0.00 64 1011.2
20260510024540 19 217 8.0 17.7 0.00 0.00 0.00 63 1011.1
20260510023051 19 207 11.3 17.7 0.00 0.00 0.00 63 1011.0
20260510021521 20 252 8.0 17.7 0.00 0.00 0.00 61 1010.7
20260510020033 20 212 6.4 16.1 0.00 0.00 0.00 61 1010.6
20260510014553 20 215 8.0 16.1 0.00 0.00 0.00 61 1010.5
20260510013022 20 188 11.3 17.7 0.00 0.00 0.00 61 1010.2
20260510011547 20 219 11.3 20.9 0.00 0.00 0.00 60 1010.1
20260510010111 19 207 11.3 17.7 0.00 0.00 0.00 61 1010.0
20260510004534 19 209 9.7 19.3 0.00 0.00 0.00 61 1009.7
20260510003058 19 186 8.0 25.7 0.00 0.00 0.00 61 1009.6
20260510001527 19 204 9.7 16.1 0.00 0.00 0.00 62 1009.3
20260510000050 20 205 8.0 17.7 0.00 0.00 0.00 61 1009.1
20260509234556 20 188 8.0 14.5 0.00 0.00 0.00 61 1009.0
20260509233018 20 190 9.7 14.5 0.00 0.00 0.00 60 1009.0
20260509231544 20 155 6.4 17.7 0.00 0.00 0.00 60 1009.1
20260509230004 20 188 9.7 16.1 0.00 0.00 0.00 59 1009.0
20260509224537 20 134 11.3 20.9 0.00 0.00 0.00 58 1009.1
20260509223054 21 196 11.3 22.5 0.00 0.00 0.00 58 1009.1
20260509221508 21 173 6.4 19.3 0.00 0.00 0.00 58 1009.1
20260509220036 21 185 4.8 16.1 0.00 0.00 0.00 57 1009.0
20260509214624 21 182 6.4 12.9 0.00 0.00 0.00 57 1009.0
20260509213031 20 155 4.8 17.7 0.00 0.00 0.00 59 1009.0
20260509211542 20 198 4.8 16.1 0.00 0.00 0.00 58 1008.9
20260509210006 20 207 8.0 22.5 0.00 0.00 0.00 57 1008.9
20260509204535 20 134 6.4 16.1 0.00 0.00 0.00 59 1008.6
20260509203102 20 132 11.3 22.5 0.00 0.00 0.00 57 1008.7
20260509201519 20 175 6.4 20.9 0.00 0.00 0.00 59 1008.6
20260509200038 21 128 9.7 19.3 0.00 0.00 0.00 56 1008.7
20260509194606 21 246 9.7 22.5 0.00 0.00 0.00 56 1008.9
20260509193032 20 232 9.7 16.1 0.00 0.00 0.00 57 1009.1
20260509191559 21 235 6.4 14.5 0.00 0.00 0.00 59 1009.2
20260509190008 20 225 16.1 27.4 0.00 0.00 0.00 56 1009.5
20260509184554 20 216 14.5 27.4 0.00 0.00 0.00 55 1009.5
20260509183008 20 288 6.4 24.1 0.00 0.00 0.00 60 1009.9
20260509181542 20 186 8.0 25.7 0.00 0.00 0.00 61 1010.1
20260509180002 20 226 8.0 22.5 0.00 0.00 0.00 64 1010.4
20260509174526 19 314 8.0 22.5 0.00 0.00 0.00 66 1010.4
20260509173053 18 232 6.4 30.6 0.00 0.00 0.00 67 1010.6
20260509171509 18 126 17.7 27.4 0.00 0.00 0.00 69 1010.9
20260509170032 17 188 9.7 17.7 0.00 0.00 0.00 72 1010.8
20260509164554 16 199 11.3 19.3 0.00 0.00 0.00 71 1010.8
20260509163012 17 210 12.9 20.9 0.00 0.00 0.00 70 1011.0
20260509161541 16 190 9.7 37.0 0.00 0.00 0.00 71 1010.8
20260509160100 17 180 8.0 27.4 0.00 0.00 0.00 72 1011.0
20260509154525 15 165 11.3 30.6 0.00 0.00 0.00 74 1011.0
20260509153051 14 168 9.7 19.3 0.00 0.00 0.00 76 1010.9
20260509151558 13 165 16.1 29.0 0.00 0.00 0.00 75 1011.2
20260509150025 13 199 8.0 27.4 0.00 0.00 0.00 74 1011.4
20260509144541 13 179 12.9 25.7 0.00 0.00 0.00 73 1011.3
20260509143016 12 151 9.7 24.1 0.00 0.00 0.00 77 1011.0
20260509141536 11 127 9.7 20.9 0.00 0.00 0.00 77 1011.2
20260509134519 11 123 9.7 20.9 0.00 0.00 0.00 76 1011.6
20260509133037 11 186 12.9 27.4 0.00 0.00 0.00 75 1011.6
20260509131601 11 174 12.9 27.4 0.00 0.00 0.00 75 1011.7
20260509130032 11 188 17.7 37.0 0.00 0.00 0.00 73 1011.9
20260509124552 11 200 12.9 24.1 0.00 0.00 0.00 71 1011.8
20260509123004 12 199 12.9 22.5 0.00 0.00 0.00 68 1011.8
20260509121527 11 174 12.9 38.6 0.00 0.00 0.00 67 1011.9
20260509120051 12 196 14.5 27.4 0.00 0.00 0.00 65 1011.7
20260509114610 12 205 16.1 24.1 0.00 0.00 0.00 65 1011.8
20260509113028 12 165 14.5 30.6 0.00 0.00 0.00 63 1011.8
20260509111547 12 218 14.5 27.4 0.00 0.00 0.00 63 1011.8
20260509110003 12 188 16.1 25.7 0.00 0.00 0.00 63 1011.9
20260509104535 11 190 14.5 32.2 0.00 0.00 0.00 63 1011.8
20260509103104 11 169 14.5 27.4 0.00 0.00 0.00 63 1011.8
20260509101525 11 198 12.9 22.5 0.00 0.00 0.00 62 1011.7
20260509100040 11 173 11.3 17.7 0.00 0.00 0.00 64 1011.7
20260509094606 10 194 8.0 17.7 0.00 0.00 0.00 65 1011.6
20260509093033 12 157 8.0 19.3 0.00 0.00 0.00 61 1011.9
20260509091558 11 186 11.3 16.1 0.00 0.00 0.00 61 1012.0
20260509090022 12 175 9.7 17.7 0.00 0.00 0.00 60 1012.2
20260509084549 13 158 9.7 19.3 0.00 0.00 0.00 56 1012.3
20260509083015 13 217 11.3 20.9 0.00 0.00 0.00 55 1012.4